Date String (YYYY-MM-DD hh:mm:ss) UTC,Instrument flags,Ambient pressure (hPa),Sample flow (lpm),Bypass flow (lpm),Sample temperature (°C),Ambient temperature (°C),ASC tube jacket temperature (°C),LED temperature (°C),Box temperature (°C),Sample RH (%),Span deviation,Mass concentration (μg/m³),Mass concentration (μg/m³),Mass concentration (μg/m³)
DateTimeUTC,F1_M11,P_M11,Q1_M11,Q2_M11,T1_M11,T2_M11,T3_M11,T4_M11,T5_M11,U1_M11,ZSPAN_M11,X0_M11,X2_M11,X1_M11
2022-07-21 12:00:00,,0829.0,4.99,0.00,29.9,28.7,00.0,38.7,31.8,20.6,0000.0,0012.84,0006.36,0004.85
2022-07-21 12:01:00,,0829.0,5.00,0.00,29.9,28.8,00.0,38.7,31.8,20.6,0000.0,0012.81,0006.34,0004.84
2022-07-21 12:02:00,,0829.0,5.00,0.00,29.9,28.8,00.0,38.7,31.9,20.8,0000.0,0013.52,0006.39,0004.86
2022-07-21 12:03:00,,0829.0,5.00,0.00,30.0,28.8,00.0,38.7,31.9,21.1,0000.0,0013.93,0006.45,0004.86
2022-07-21 12:04:00,,0829.0,5.00,0.00,30.0,28.9,00.0,38.7,31.9,21.1,0000.0,0013.96,0006.44,0004.86
2022-07-21 12:05:00,,0829.1,5.00,0.00,30.0,28.9,00.0,38.7,31.9,21.1,0000.0,0013.97,0006.44,0004.88
2022-07-21 12:06:00,,0829.0,4.99,0.00,30.0,28.9,00.0,38.8,31.9,21.0,0000.0,0013.84,0006.38,0004.89
2022-07-21 12:07:00,,0829.1,5.01,0.00,30.0,29.0,00.0,38.8,32.0,20.9,0000.0,0013.97,0006.43,0004.91
2022-07-21 12:08:00,,0829.0,4.99,0.00,30.1,29.0,00.0,38.8,32.0,20.9,0000.0,0013.73,0006.41,0004.91
2022-07-21 12:09:00,,0829.1,5.01,0.00,30.1,29.0,00.0,38.8,32.0,20.9,0000.0,0013.69,0006.42,0004.92
2022-07-21 12:10:00,,0829.1,5.01,0.00,30.1,29.0,00.0,38.8,32.0,20.9,0000.0,0014.16,0006.46,0004.93
2022-07-21 12:11:00,,0829.0,4.99,0.00,30.1,29.1,00.0,38.8,32.0,20.8,0000.0,0014.33,0006.46,0004.94
2022-07-21 12:12:00,,0829.1,5.00,0.00,30.1,29.1,00.0,38.9,32.1,20.8,0000.0,0014.16,0006.45,0004.95
2022-07-21 12:13:00,,0829.1,5.00,0.00,30.1,28.8,00.0,38.8,32.0,20.7,0000.0,0013.65,0006.47,0004.94
2022-07-21 12:14:00,,0829.1,5.00,0.00,30.1,28.0,00.0,38.8,31.9,20.7,0000.0,0013.71,0006.46,0004.93
2022-07-21 12:15:00,,0829.1,4.99,0.00,30.1,27.7,00.0,38.7,31.8,20.7,0000.0,0013.67,0006.42,0004.90
2022-07-21 12:16:00,,0829.0,5.00,0.00,30.0,27.6,00.0,38.7,31.7,20.8,0000.0,0013.50,0006.36,0004.87
2022-07-21 12:17:00,,0829.1,5.00,0.00,29.9,27.7,00.0,38.7,31.6,21.0,0000.0,0013.37,0006.38,0004.85
2022-07-21 12:18:00,,0829.1,4.99,0.00,29.9,27.8,00.0,38.7,31.6,21.1,0000.0,0013.26,0006.30,0004.83
2022-07-21 12:19:00,,0829.1,5.00,0.00,29.9,27.9,00.0,38.7,31.7,21.2,0000.0,0013.46,0006.24,0004.80
2022-07-21 12:20:00,,0829.1,5.00,0.00,29.8,28.0,00.0,38.7,31.7,21.4,0000.0,0013.82,0006.16,0004.77
2022-07-21 12:21:00,,0829.1,5.00,0.00,29.9,28.1,00.0,38.7,31.7,21.5,0000.0,0013.29,0006.12,0004.74
2022-07-21 12:22:00,,0829.1,4.99,0.00,29.8,28.2,00.0,38.7,31.7,21.6,0000.0,0013.07,0006.10,0004.71
2022-07-21 12:23:00,,0829.1,5.00,0.00,29.8,28.3,00.0,38.7,31.7,21.7,0000.0,0013.64,0006.13,0004.69
2022-07-21 12:24:00,,0829.1,5.00,0.00,29.9,28.4,00.0,38.7,31.7,21.7,0000.0,0013.46,0006.06,0004.68
2022-07-21 12:25:00,,0829.1,4.99,0.00,29.9,28.5,00.0,38.7,31.8,21.8,0000.0,0013.06,0006.00,0004.67
2022-07-21 12:26:00,,0829.1,5.00,0.00,29.9,28.6,00.0,38.7,31.8,21.7,0000.0,0013.58,0005.99,0004.66
2022-07-21 12:27:00,,0829.2,5.00,0.00,29.9,28.6,00.0,38.7,31.8,21.7,0000.0,0013.68,0005.98,0004.66
2022-07-21 12:28:00,,0829.3,4.98,0.00,29.9,28.7,00.0,38.7,31.8,21.7,0000.0,0013.76,0005.98,0004.66
2022-07-21 12:29:00,,0829.3,5.00,0.00,29.9,28.7,00.0,38.7,31.9,21.5,0000.0,0013.39,0006.07,0004.66
2022-07-21 12:30:00,,0829.2,5.01,0.00,29.9,28.8,00.0,38.7,31.9,21.3,0000.0,0013.21,0006.10,0004.68
2022-07-21 12:31:00,,0829.3,5.00,0.00,30.0,28.8,00.0,38.7,31.9,21.3,0000.0,0013.53,0006.06,0004.68
2022-07-21 12:32:00,,0829.3,4.99,0.00,30.0,28.9,00.0,38.8,31.9,21.2,0000.0,0013.73,0006.07,0004.68
2022-07-21 12:33:00,,0829.3,5.00,0.00,30.0,28.9,00.0,38.8,31.9,21.4,0000.0,0013.73,0006.09,0004.70
2022-07-21 12:34:00,,0829.3,5.00,0.00,30.0,28.9,00.0,38.8,32.0,21.0,0000.0,0013.10,0006.06,0004.71
2022-07-21 12:35:00,,0829.2,4.99,0.00,30.1,29.0,00.0,38.8,32.0,21.0,0000.0,0012.90,0006.03,0004.71
2022-07-21 12:36:00,,0829.3,5.00,0.00,30.1,29.0,00.0,38.8,32.0,20.9,0000.0,0012.88,0006.04,0004.70
2022-07-21 12:37:00,,0829.3,4.99,0.00,30.1,29.0,00.0,38.8,32.0,20.9,0000.0,0012.35,0006.04,0004.69
2022-07-21 12:38:00,,0829.2,5.01,0.00,30.1,29.1,00.0,38.9,32.0,20.9,0000.0,0012.45,0006.04,0004.70
2022-07-21 12:39:00,,0829.2,5.01,0.00,30.1,29.1,00.0,38.9,32.1,20.6,0000.0,0012.79,0006.01,0004.69
2022-07-21 12:40:00,,0829.2,4.99,0.00,30.2,29.0,00.0,38.9,32.1,21.0,0000.0,0012.93,0005.91,0004.68
2022-07-21 12:41:00,,0829.3,5.01,0.00,30.2,28.2,00.0,38.8,32.0,21.2,0000.0,0013.13,0005.92,0004.68
2022-07-21 12:42:00,,0829.3,5.00,0.00,30.1,27.5,00.0,38.7,31.8,21.3,0000.0,0012.78,0005.99,0004.70
2022-07-21 12:43:00,,0829.3,5.00,0.00,30.0,27.3,00.0,38.7,31.7,21.3,0000.0,0012.38,0006.01,0004.71
2022-07-21 12:44:00,,0829.3,5.00,0.00,29.9,27.4,00.0,38.7,31.6,21.4,0000.0,0012.65,0005.94,0004.70
2022-07-21 12:45:00,,0829.3,5.01,0.00,29.9,27.5,00.0,38.7,31.6,21.5,0000.0,0013.19,0005.94,0004.69
2022-07-21 12:46:00,,0829.3,5.00,0.00,29.8,27.6,00.0,38.7,31.6,21.4,0000.0,0014.17,0005.92,0004.70
2022-07-21 12:47:00,,0829.3,5.00,0.00,29.8,27.7,00.0,38.7,31.6,21.5,0000.0,0014.90,0005.96,0004.71
2022-07-21 12:48:00,,0829.3,5.00,0.00,29.8,27.9,00.0,38.7,31.6,21.4,0000.0,0014.90,0005.96,0004.71
2022-07-21 12:49:00,,0829.2,4.99,0.00,29.8,28.0,00.0,38.6,31.6,21.0,0000.0,0014.89,0005.96,0004.71
2022-07-21 12:50:00,,0829.2,5.00,0.00,29.8,28.1,00.0,38.6,31.6,20.3,0000.0,0014.31,0005.95,0004.71
2022-07-21 12:51:00,,0829.2,5.00,0.00,29.8,28.2,00.0,38.6,31.6,20.4,0000.0,0014.11,0005.99,0004.69
2022-07-21 12:52:00,,0829.2,5.01,0.00,29.8,28.3,00.0,38.6,31.7,20.3,0000.0,0013.65,0005.93,0004.65
2022-07-21 12:53:00,,0829.3,4.99,0.00,29.8,28.4,00.0,38.6,31.7,20.4,0000.0,0013.63,0005.90,0004.62
2022-07-21 12:54:00,,0829.3,4.99,0.00,29.8,28.5,00.0,38.6,31.7,20.1,0000.0,0013.52,0005.89,0004.60
2022-07-21 12:55:00,,0829.3,5.00,0.00,29.8,28.6,00.0,38.6,31.7,20.0,0000.0,0013.18,0005.92,0004.59
2022-07-21 12:56:00,,0829.3,5.01,0.00,29.9,28.6,00.0,38.6,31.8,20.3,0000.0,0012.68,0005.89,0004.57
2022-07-21 12:57:00,,0829.3,4.99,0.00,29.9,28.7,00.0,38.7,31.7,20.0,0000.0,0011.84,0005.87,0004.55
2022-07-21 12:58:00,,0829.3,5.01,0.00,29.9,28.7,00.0,38.7,31.8,19.8,0000.0,0011.01,0005.81,0004.53
2022-07-21 12:59:00,,0829.2,4.99,0.00,29.9,28.8,00.0,38.7,31.9,19.9,0000.0,0010.98,0005.77,0004.52
